RH
31 33 33 33 32 27 32 26 26 22 19 17 16 19 26 28 12 6 3 3 4 4 4 4 5 6 7 7 7 5 5 5 6 8 8 8 8 9 9 9 9 10 11
33 33 33 34 31 30 33 30 27 26 26 24 19 14 16 25 27 8 4 4 4 5 6 7 7 8 8 9 9 8 8 8 8 7 8 8 8 9 10 10 10 11 11
38 34 34 33 29 30 31 30 29 28 27 27 24 18 11 15 27 22 7 4 6 7 8 8 8 8 9 9 9 9 9 9 9 9 9 10 10 11 11 11 10 10 9
40 35 35 32 32 32 34 33 31 29 29 28 27 24 16 9 17 27 16 8 7 8 8 9 9 9 9 10 10 10 10 10 10 10 11 10 10 10 10 9 8 8 8
38 35 35 32 34 36 38 36 33 32 32 30 28 26 23 13 9 22 25 16 9 8 8 9 9 9 9 9 9 9 9 9 9 9 9 9 8 8 9 10 12 14 16
37 36 36 36 35 41 37 38 35 34 33 31 28 25 25 22 12 12 24 26 23 20 17 16 16 15 16 16 17 18 18 18 18 18 19 19 19 19 19 19 18 17 16
39 38 39 41 40 42 37 39 37 36 34 33 30 26 24 24 22 16 13 16 19 19 18 16 15 16 16 16 17 18 19 20 21 17 18 20 19 20 20 21 21 21 20
40 41 43 43 42 44 39 40 41 38 35 34 30 27 26 24 24 24 22 21 22 22 22 22 22 22 23 24 24 23 22 23 23 22 22 21 20 20 19 19 18 18 18
46 43 44 45 44 44 42 41 42 41 37 35 32 35 36 34 29 26 26 26 25 24 23 24 24 25 25 25 25 24 25 24 22 22 22 21 21 22 22 23 23 23 23
48 47 47 46 44 44 44 43 42 43 41 37 36 38 41 40 38 35 32 30 28 28 28 26 25 26 26 26 26 27 27 26 25 26 26 25 25 24 22 21 22 22 21
45 45 47 46 44 44 44 44 44 44 44 42 40 40 42 42 41 40 38 35 33 32 31 30 29 28 28 28 27 28 29 28 26 25 24 23 23 22 22 20 14 8 4
46 45 45 45 45 46 45 45 44 47 47 44 42 42 43 44 44 44 44 42 39 36 34 34 33 31 30 30 29 28 29 27 24 23 25 27 26 22 15 6 3 5 6
42 47 46 45 45 44 43 43 43 46 47 44 45 45 45 43 45 46 46 46 45 44 42 38 35 34 33 31 30 29 27 24 25 29 27 25 20 11 6 7 7 8 8
40 37 41 46 47 45 44 44 44 44 45 45 46 48 47 45 44 45 46 47 47 47 47 44 39 36 33 31 30 30 26 26 29 27 24 17 10 7 8 8 9 10 11
39 33 32 35 39 42 43 44 43 48 46 47 52 52 48 49 48 46 47 47 48 51 49 48 43 37 34 32 30 27 29 29 25 22 16 9 7 8 10 11 12 13 15
63 51 42 36 39 40 39 42 46 50 50 49 52 53 51 52 51 50 50 48 48 50 51 50 45 38 36 33 30 29 29 23 17 13 11 9 10 11 12 14 16 16 16
66 65 54 43 41 43 40 40 45 51 51 49 47 50 54 51 50 56 52 49 50 52 53 52 46 40 38 33 30 30 24 20 14 11 10 12 13 14 17 18 18 17 17
50 70 65 50 40 46 45 44 50 52 54 53 50 50 49 50 52 50 47 49 51 52 54 52 47 42 38 33 31 29 28 26 20 13 12 13 15 18 20 20 20 20 20
48 49 72 64 44 40 49 49 51 56 56 55 55 55 52 54 54 52 52 54 54 52 51 52 49 43 38 33 31 33 30 27 28 29 24 17 14 14 17 20 23 23 23
29 50 66 73 66 50 41 53 55 58 57 55 54 53 53 52 53 55 56 58 57 51 49 54 51 45 37 33 35 33 34 33 33 31 28 23 17 14 15 17 20 21 22
24 45 65 73 73 69 54 45 50 53 51 51 50 48 47 45 45 47 56 59 59 51 47 54 52 45 37 37 38 40 42 43 44 44 45 42 38 34 27 18 14 14 15
34 35 46 70 73 72 69 61 56 59 57 54 56 54 48 45 43 48 60 60 61 53 51 56 54 43 40 41 44 46 47 47 47 47 48 49 48 45 38 27 20 19 20
31 33 38 51 71 72 71 65 61 55 59 58 56 52 48 44 42 57 66 70 62 51 53 61 54 42 44 46 49 50 50 49 49 50 50 51 51 49 42 28 23 23 23
20 26 38 50 59 70 70 70 72 57 52 49 54 56 55 49 52 63 74 74 60 56 63 68 51 45 46 49 52 53 53 52 52 53 53 54 54 51 41 26 24 24 23
10 18 27 38 57 61 64 66 69 61 60 53 57 59 57 57 63 71 80 71 64 83 77 71 50 48 48 51 54 55 54 53 54 56 55 57 57 48 34 25 25 24 22
16 20 35 47 44 67 63 64 66 58 47 54 60 59 56 55 67 75 80 73 78 89 88 84 51 51 51 56 58 57 57 58 58 58 57 56 54 49 30 26 24 20 16
Wind_Speed
10 7 3 1 3 7 10 9 8 8 8 8 8 7 5 5 6 5 5 3 1 2 3 3 4 3 1 1 1 3 4 6 7 9 9 10 10 10 10 10 11 10 11
10 7 6 3 1 5 9 9 8 7 8 9 9 9 6 5 6 6 4 2 2 1 1 2 2 2 1 1 1 2 3 5 6 6 6 8 8 9 10 11 12 11 12
8 7 7 5 1 4 6 6 7 7 7 9 10 11 8 5 4 4 4 2 0 0 1 1 0 1 0 0 1 2 4 5 5 6 7 8 10 11 11 12 14 14 14
8 9 8 6 2 1 4 7 6 6 7 8 10 10 11 8 4 3 3 2 2 1 1 1 1 2 2 2 2 3 5 6 7 7 9 8 11 12 12 13 13 14 13
10 11 10 7 3 1 7 8 6 6 7 8 9 10 11 11 8 4 3 3 2 2 2 2 2 3 3 3 3 5 5 6 7 9 10 10 10 12 12 11 11 11 12
13 12 10 7 4 5 7 6 6 6 7 8 9 9 10 11 11 8 5 3 3 2 2 2 2 3 3 3 4 5 6 6 7 8 9 9 10 11 11 12 12 12 12
14 14 10 6 6 7 6 7 8 6 6 7 9 10 11 11 11 11 9 6 4 3 3 3 4 4 4 4 4 5 6 7 9 9 9 8 9 11 11 11 11 11 12
12 16 10 10 10 9 9 8 8 8 7 7 7 8 10 11 11 10 9 8 7 6 6 5 5 5 4 4 5 6 8 9 9 10 11 11 11 11 12 11 11 12 12
17 18 16 12 12 12 12 11 8 8 8 7 5 6 8 10 11 11 10 9 8 8 7 7 7 7 7 8 8 9 9 11 11 11 11 12 12 13 14 14 14 15 15
19 20 18 17 15 15 14 14 12 10 8 8 6 4 4 6 7 9 10 10 11 10 10 10 9 9 10 11 11 11 11 13 12 13 12 15 15 15 15 15 17 17 17
20 20 20 20 19 18 16 16 14 13 11 10 9 7 5 6 6 6 7 9 10 11 12 12 12 12 12 13 14 13 14 16 14 13 14 15 16 17 16 16 18 18 18
21 22 23 23 22 20 19 19 17 16 15 14 13 10 9 7 7 8 9 9 10 11 13 14 14 14 14 14 15 15 16 19 16 14 15 16 18 18 17 15 14 13 12
23 22 24 26 25 22 21 20 20 20 18 16 16 14 11 12 10 9 8 8 10 12 14 14 16 17 17 18 18 18 18 19 17 17 17 18 18 17 14 14 13 13 12
27 26 26 25 25 25 24 23 22 23 22 19 18 16 14 13 14 14 13 11 12 11 13 15 16 18 19 19 19 20 21 22 18 18 17 18 17 16 15 14 14 14 13
32 32 31 28 27 28 26 26 24 25 24 23 21 20 19 16 14 18 15 16 15 13 14 16 17 19 20 20 20 20 21 23 20 18 16 16 16 16 16 15 15 15 15
24 29 32 32 27 27 27 27 25 25 25 26 25 24 20 19 18 18 17 21 20 18 17 17 17 18 20 21 21 21 21 22 20 18 16 16 16 17 17 17 17 17 17
24 27 32 33 30 27 27 27 27 25 25 25 26 26 21 20 18 21 22 21 20 19 20 20 20 19 20 21 21 21 21 20 20 18 16 15 17 17 18 19 19 20 20
36 28 33 36 34 29 28 27 26 25 25 25 23 23 23 20 20 22 23 20 22 21 22 23 22 21 20 20 20 20 19 19 20 18 17 17 17 18 20 21 22 22 23
43 40 31 37 38 35 29 28 28 28 28 25 23 23 24 21 21 23 23 22 23 23 23 24 23 22 20 19 18 18 18 18 19 19 19 19 21 21 21 22 24 26 26
42 43 35 34 38 39 35 30 31 31 30 29 28 28 27 26 26 26 25 24 25 26 26 25 24 22 19 18 16 16 16 17 18 19 19 19 21 22 24 24 27 28 30
37 45 43 38 40 41 42 38 35 34 32 31 30 29 27 26 29 29 29 28 25 27 27 25 24 21 18 17 15 14 15 16 18 20 21 22 23 25 25 27 28 30 31
33 39 46 45 43 43 46 43 40 37 36 33 31 28 28 28 29 30 29 28 26 26 25 24 23 20 18 16 14 14 15 16 18 20 23 24 26 27 28 29 30 31 33
38 37 39 48 49 46 45 48 47 43 42 39 36 31 29 30 31 28 27 26 26 24 24 24 22 20 18 16 15 16 18 20 22 23 25 27 29 30 31 32 33 34 36
39 42 41 43 51 53 50 52 52 51 45 42 37 32 30 30 30 29 27 27 28 26 23 23 22 21 19 18 18 19 20 23 25 28 29 31 31 33 34 34 36 38 39
35 39 44 42 45 57 58 57 57 55 49 43 40 35 33 32 31 30 28 29 29 28 22 23 23 21 20 20 20 22 24 27 29 31 31 32 33 35 36 36 38 40 41
31 37 41 40 41 51 59 61 61 62 51 44 41 36 36 35 34 31 30 30 27 27 24 24 24 23 22 22 23 24 27 30 34 37 38 38 39 37 37 38 39 40 40
Wind_Direction
174 173 173 169 15 24 22 13 6 9 13 11 0 352 347 337 334 345 339 340 309 179 167 170 172 213 223 353 167 221 233 231 237 239 246 253 262 274 281 286 289 296 298
173 189 189 202 326 19 17 11 3 1 8 11 10 4 352 338 339 345 356 2 1 40 127 128 141 176 154 110 101 164 224 241 250 252 257 263 272 280 287 292 294 294 295
183 198 203 193 116 27 357 347 345 355 6 10 11 12 9 354 336 346 351 355 334 133 87 91 201 206 190 196 179 229 237 249 261 268 273 286 288 289 290 291 293 295 294
214 207 204 196 153 18 348 332 334 355 5 12 13 15 17 13 9 6 3 6 3 1 352 315 294 290 302 299 280 271 273 275 278 279 278 279 278 281 283 287 291 293 298
210 206 204 203 200 271 334 319 325 346 359 10 19 20 24 26 25 23 19 14 5 341 308 293 289 293 303 300 300 292 285 282 282 283 281 285 286 284 289 291 292 295 300
209 208 202 198 206 307 313 304 317 325 343 355 10 25 34 35 37 34 29 19 11 7 5 350 342 342 334 330 324 313 304 302 296 300 303 303 293 290 292 296 299 299 297
212 203 191 238 247 300 274 289 298 308 329 350 2 21 33 41 42 47 46 39 33 33 39 47 46 36 9 351 343 327 322 322 326 313 320 311 302 305 304 305 306 303 302
210 203 225 241 258 280 260 264 288 298 310 331 358 27 40 42 46 47 47 45 40 37 33 31 31 23 4 354 340 327 325 326 317 325 323 318 311 309 306 305 308 305 301
222 222 233 240 252 266 252 252 265 286 294 305 333 9 34 42 40 40 39 36 27 20 14 8 3 358 350 345 335 330 331 316 318 315 314 305 302 301 300 302 303 295 293
230 231 235 238 247 254 249 254 261 264 277 288 285 312 358 26 29 33 31 30 26 17 9 0 350 344 339 333 329 329 321 309 311 310 308 298 296 294 294 300 291 292 291
240 234 235 238 243 245 246 255 260 260 264 271 282 282 304 341 352 9 15 16 13 10 5 360 348 338 333 328 325 323 315 305 310 307 302 296 296 294 297 291 289 286 286
247 241 239 239 243 239 244 251 255 259 264 263 267 276 294 304 317 335 345 354 354 355 353 351 343 334 328 324 318 315 311 305 309 307 301 299 299 298 294 293 286 286 290
258 246 244 243 242 243 248 251 253 256 260 258 260 265 279 287 291 298 311 326 330 339 340 339 333 331 325 322 319 317 311 304 309 308 305 301 298 295 293 288 287 288 290
249 260 253 249 250 249 249 253 255 251 253 250 250 262 268 272 280 286 297 302 307 319 323 328 323 322 321 319 318 315 313 309 313 310 306 301 296 291 289 287 286 285 285
255 258 260 260 260 262 258 256 257 255 251 251 258 267 265 267 277 283 291 291 296 297 305 312 315 317 317 316 315 313 311 309 313 310 304 301 295 291 288 287 285 284 284
247 252 256 259 263 261 264 262 259 253 253 252 254 257 263 269 278 281 282 287 286 291 298 300 303 309 311 310 312 312 312 310 312 310 305 300 295 290 289 287 284 283 284
234 249 254 258 261 261 263 263 264 260 257 252 251 255 261 266 269 282 280 282 283 289 293 296 298 301 302 305 308 310 310 310 309 307 305 299 293 293 289 287 286 286 284
238 236 248 255 258 260 260 259 259 258 258 260 254 255 254 255 267 271 273 278 281 283 287 289 290 291 293 296 301 304 307 308 307 304 301 296 292 290 289 290 290 287 288
242 239 245 254 255 257 255 252 253 253 258 258 258 259 261 266 270 267 273 278 281 284 285 283 281 281 284 289 294 300 305 308 308 308 305 300 293 289 287 287 287 287 288
233 235 229 249 255 258 255 248 246 249 253 256 259 261 268 274 269 268 271 276 281 285 281 275 272 273 276 284 291 298 307 313 314 314 313 308 304 300 295 292 288 289 288
237 227 227 233 248 253 255 250 248 249 254 258 260 267 269 269 267 269 268 274 278 281 277 273 269 269 274 278 286 297 307 315 318 319 317 315 311 304 301 296 294 292 291
235 236 228 228 237 247 255 258 253 250 251 252 255 259 266 268 268 265 265 274 279 279 274 267 263 264 267 273 283 294 302 310 314 318 319 318 314 310 305 301 297 294 292
239 236 235 231 232 242 250 251 252 249 247 248 253 258 266 272 272 265 268 275 278 278 270 261 257 259 262 270 280 293 302 308 313 315 318 318 316 311 306 302 299 296 293
239 238 233 231 230 236 244 249 253 254 254 254 258 263 265 268 264 261 266 273 276 279 266 255 253 255 261 271 283 293 301 307 312 314 315 315 315 311 306 304 300 298 296
242 242 239 229 231 231 238 245 251 254 254 252 252 255 261 261 259 254 261 266 274 277 270 251 253 257 265 274 283 293 300 305 309 310 310 309 311 309 305 303 301 298 295
244 239 235 239 228 231 238 242 246 251 254 250 245 250 258 257 255 252 257 263 270 262 264 254 252 258 265 275 285 293 300 305 308 310 309 308 308 307 304 302 300 298 296